Simultaneous Nadir Overpasses (SNOs) Predictions

Prediction of SNOs between GOES-17 and AQUA Satellite Orbit:

Table of predicted SNOs for the next 14.0 days since TLE Epoch: 7/4/2025
Index Date Time (GOES-17) GOES-17 Lat,Lon AQUA Lat,Lon Distance(km) Time Diff (sec)
1 07/05/2025 08:58:19 -0.04, -92.82 0.13, -93.55 84.07 80
2 07/07/2025 08:40:35 -0.05, -91.75 -0.77, -88.53 366.73 80
3 07/07/2025 20:57:11 0.05, -91.49 -0.31, -93.18 191.66 80
4 07/09/2025 20:39:26 0.06, -90.42 0.55, -88.15 259.35 80
5 07/10/2025 08:55:54 -0.06, -90.13 0.48, -92.76 298.59 80
6 07/12/2025 08:38:08 -0.06, -89.07 -0.35, -87.72 152.89 80
7 07/12/2025 20:54:44 0.07, -88.81 -0.71, -92.37 405.38 80
8 07/14/2025 20:36:58 0.07, -87.75 0.14, -87.33 47.04 80
9 07/17/2025 08:32:59 -0.07, -86.41 0.01, -86.92 57.41 80
